Location: Dehesa de la Cepeda
(40.6574°N, 4.3013°W)
Time: 21:23:03
(UTC+00:00)

Vanguard 2 Rocket - Pass Details

Date: 06 August 2021
Orbit: 556 x 3324 km, 32.9° (Epoch: 19 September)

Event Time Altitude Azimuth Distance (km) Brightness Sun altitude
Rises 07:27:50 0° 251° (WSW) 3,230 9.2 22.9°
Reaches altitude 10° 07:30:46 10° 240° (WSW) 2,068 8.3 23.4°
Maximum altitude 07:34:37 29° 180° (S) 1,061 7.5 24.2°
Drops below altitude 10° 07:38:03 10° 118° (ESE) 1,828 9.7 24.8°
Sets 07:40:29 0° 106° (ESE) 2,779 10.6 25.3°
